Total_Precipitation_Accumulation
0.06 0.12 0.29 0.55 1.13 1.42 1.20 0.75 0.54 0.52 0.59 0.59 0.51 0.49 0.57 0.65 0.89 1.51 1.16 0.70 0.42 0.36 0.44 0.63 0.92 0.88 0.80 0.82 0.85 0.87 0.81 0.77 0.76 0.74 0.72 0.82 0.87 0.81 0.81 0.88 0.92 0.95 0.95 1.00 1.06 0.96 0.93 0.93 0.93
0.10 0.19 0.39 0.93 1.39 1.29 1.14 0.64 0.37 0.45 0.54 0.68 0.67 0.54 0.47 0.49 0.47 0.55 0.64 0.72 0.37 0.29 0.34 0.45 0.72 0.77 0.73 0.74 0.77 0.75 0.70 0.66 0.68 0.69 0.72 0.81 0.87 0.90 0.92 1.00 1.02 1.02 1.06 1.10 1.04 0.96 0.93 0.93 1.01
0.14 0.26 0.46 0.92 0.96 0.85 0.86 0.52 0.38 0.33 0.50 0.74 0.72 0.49 0.49 0.54 0.46 0.45 0.50 0.54 0.37 0.32 0.29 0.40 0.62 0.65 0.65 0.66 0.67 0.68 0.68 0.63 0.63 0.68 0.74 0.81 0.90 1.00 1.07 1.13 1.17 1.17 1.19 1.14 1.06 0.99 0.93 0.92 0.96
0.16 0.32 0.55 0.61 0.42 0.32 0.40 0.45 0.47 0.45 0.63 0.76 0.63 0.52 0.54 0.55 0.49 0.41 0.40 0.47 0.33 0.33 0.30 0.38 0.57 0.56 0.55 0.57 0.59 0.61 0.65 0.63 0.63 0.68 0.73 0.83 0.88 0.95 1.06 1.11 1.17 1.23 1.17 1.05 1.02 1.06 0.96 0.94 0.99
0.14 0.31 0.57 0.45 0.27 0.21 0.22 0.28 0.36 0.53 0.71 0.82 0.69 0.66 0.74 0.60 0.47 0.40 0.36 0.48 0.45 0.38 0.37 0.41 0.55 0.56 0.54 0.57 0.60 0.60 0.60 0.61 0.59 0.62 0.64 0.76 0.83 0.87 0.98 1.05 1.09 1.06 1.05 1.04 1.08 1.13 1.08 1.07 1.06
0.13 0.25 0.43 0.30 0.19 0.16 0.20 0.25 0.39 0.58 0.61 0.69 0.79 0.86 0.89 0.69 0.58 0.48 0.46 0.58 0.60 0.51 0.41 0.50 0.59 0.64 0.65 0.64 0.63 0.63 0.62 0.58 0.58 0.60 0.63 0.73 0.83 0.91 0.99 1.04 0.98 0.89 0.86 0.94 1.07 1.14 1.15 1.08 1.02
0.16 0.20 0.23 0.19 0.13 0.15 0.22 0.32 0.36 0.49 0.57 0.77 0.82 0.85 0.94 0.89 0.74 0.60 0.72 0.95 0.91 0.76 0.58 0.61 0.62 0.61 0.66 0.72 0.70 0.69 0.68 0.66 0.63 0.63 0.67 0.74 0.84 0.87 0.95 1.08 0.99 0.88 0.86 0.95 1.10 1.09 1.16 1.02 0.95
0.10 0.16 0.19 0.16 0.09 0.13 0.19 0.26 0.37 0.50 0.62 0.69 0.79 0.91 0.94 0.84 0.76 0.80 1.01 1.38 1.52 1.36 1.05 0.75 0.69 0.75 0.71 0.68 0.76 0.80 0.70 0.67 0.71 0.76 0.82 0.87 0.93 0.97 1.03 1.08 1.16 1.04 1.03 1.10 1.21 1.11 1.03 1.02 1.02
0.05 0.12 0.16 0.12 0.11 0.13 0.20 0.26 0.32 0.38 0.48 0.70 0.88 1.02 0.92 0.73 0.77 0.99 1.20 1.52 1.71 1.53 1.34 1.15 1.03 0.93 0.90 0.83 0.73 0.92 0.85 0.83 0.96 1.16 1.15 1.27 1.43 1.28 1.30 1.24 1.39 1.34 1.34 1.51 1.59 1.42 1.30 1.25 1.22
0.03 0.08 0.08 0.06 0.05 0.06 0.12 0.22 0.29 0.43 0.74 1.17 1.40 1.26 1.01 0.86 0.98 1.23 1.40 1.42 1.51 1.53 1.48 1.52 1.33 1.21 1.21 1.11 1.22 1.51 1.38 1.38 1.61 1.74 1.67 1.97 2.12 1.88 1.40 1.49 1.82 1.83 1.94 2.13 2.19 2.20 1.88 1.60 1.37
0.01 0.04 0.04 0.03 0.03 0.03 0.07 0.15 0.27 0.45 0.96 1.45 1.65 1.35 1.14 1.09 1.19 1.34 1.65 1.75 1.84 1.83 1.66 1.73 1.65 1.54 1.59 1.71 1.69 1.83 1.93 2.03 2.21 2.23 2.27 2.47 2.24 1.87 1.68 1.87 2.23 2.29 2.34 2.40 2.52 2.57 2.11 2.07 2.09
0.01 0.01 0.01 0.01 0.02 0.02 0.05 0.15 0.35 0.60 1.00 1.28 1.21 1.07 1.06 1.26 1.45 1.63 1.89 2.19 2.30 2.34 2.22 2.00 1.94 2.12 2.13 2.05 1.99 1.84 1.67 1.72 1.97 2.12 2.06 2.43 2.65 2.53 2.52 2.61 2.46 2.61 2.81 3.06 2.88 2.81 2.56 2.53 2.36
0.00 0.01 0.01 0.01 0.02 0.04 0.08 0.17 0.37 0.69 0.90 0.96 0.84 0.88 1.14 1.42 1.68 2.12 2.53 2.61 2.58 2.80 2.94 2.73 2.65 2.61 2.44 2.46 2.11 1.80 1.73 1.63 1.58 1.83 2.00 2.24 2.59 2.73 2.80 2.56 2.47 2.35 2.49 2.67 2.67 2.43 2.52 2.65 2.58
0.00 0.01 0.01 0.02 0.03 0.06 0.15 0.24 0.37 0.61 0.69 0.70 0.77 1.01 1.22 1.62 1.91 2.43 2.92 2.98 3.07 3.33 3.50 3.40 3.36 3.16 2.86 2.60 2.41 2.26 1.98 1.92 1.63 1.72 1.76 2.11 2.50 2.57 2.44 2.47 2.53 2.37 2.43 2.43 2.43 2.44 2.63 2.78 2.82
0.00 0.02 0.08 0.08 0.06 0.08 0.17 0.39 0.47 0.65 0.74 0.69 0.87 1.04 1.42 1.87 2.13 2.45 2.70 3.09 3.51 3.88 3.94 3.87 3.88 3.76 3.69 3.35 2.94 2.54 2.38 2.10 2.01 1.95 1.79 2.03 2.34 2.50 2.49 2.42 2.29 2.28 2.33 2.43 2.47 2.50 2.63 2.53 2.57
0.02 0.07 0.19 0.18 0.12 0.12 0.17 0.55 0.78 0.75 0.72 0.76 0.93 1.27 1.54 1.84 2.24 2.46 2.78 3.13 3.53 4.03 4.41 4.47 3.98 3.93 3.96 3.84 3.52 3.08 2.97 2.80 2.60 2.25 2.02 1.98 2.16 2.25 2.36 2.17 2.14 2.20 2.04 2.07 2.24 2.21 2.27 2.36 2.49
0.06 0.12 0.19 0.27 0.17 0.14 0.26 0.76 1.10 0.83 0.67 0.81 1.08 1.40 1.76 1.99 2.40 2.52 2.70 2.98 3.43 4.30 5.20 5.18 4.64 4.23 3.94 3.86 3.87 3.73 3.53 3.13 2.71 2.42 2.24 2.09 1.93 1.79 1.87 1.84 1.93 1.90 1.84 1.87 1.70 2.02 2.15 2.27 2.32
0.07 0.12 0.24 0.36 0.22 0.21 0.32 0.71 0.78 0.69 0.87 0.88 0.92 1.16 1.49 1.62 1.91 2.18 2.47 3.00 3.80 4.98 5.76 5.65 5.01 4.55 4.20 4.00 3.82 3.76 3.43 3.12 2.68 2.46 2.29 2.03 1.96 1.68 1.64 1.62 1.72 1.64 1.70 1.84 1.90 2.08 2.06 1.99 1.99
0.05 0.11 0.23 0.27 0.21 0.29 0.38 0.61 0.71 0.82 1.02 1.02 0.88 0.93 1.23 1.44 1.72 2.18 2.73 3.57 4.65 5.55 5.82 5.31 4.80 4.46 4.03 3.61 3.04 2.68 2.63 2.52 2.23 1.96 1.69 1.60 1.54 1.62 1.69 1.52 1.64 1.52 1.56 1.59 1.64 1.75 1.76 1.72 1.78
0.07 0.10 0.21 0.27 0.19 0.22 0.38 0.71 1.02 1.00 0.93 0.89 0.95 0.95 1.06 1.43 1.88 2.60 3.63 4.21 4.45 4.58 4.34 4.00 3.73 3.52 3.07 2.70 2.47 2.21 2.19 2.00 1.80 1.70 1.66 1.42 1.35 1.41 1.37 1.50 1.48 1.43 1.58 1.60 1.58 1.66 1.63 1.52 1.55
0.11 0.13 0.20 0.26 0.17 0.18 0.39 0.89 1.18 1.17 0.95 0.82 0.86 0.86 1.04 1.47 2.06 2.86 3.44 3.56 3.28 2.96 2.87 2.82 2.88 2.64 2.50 2.45 2.34 2.23 2.23 1.99 1.73 1.61 1.58 1.35 1.18 1.19 1.25 1.28 1.31 1.42 1.42 1.54 1.57 1.48 1.53 1.56 1.50
0.09 0.08 0.07 0.10 0.16 0.35 0.54 1.12 1.32 1.09 1.07 0.89 0.88 0.90 0.95 1.23 1.59 2.01 2.25 2.14 2.26 2.40 2.41 2.53 2.62 2.37 2.34 2.28 1.99 1.90 1.80 1.69 1.54 1.48 1.48 1.54 1.28 1.12 1.09 1.13 1.18 1.29 1.26 1.45 1.31 1.38 1.54 1.59 1.44
0.05 0.04 0.05 0.12 0.23 0.43 0.63 0.90 1.07 0.90 1.09 0.88 0.74 0.74 0.72 0.89 0.97 1.08 1.21 1.37 1.58 1.69 1.86 2.17 2.41 2.34 2.17 2.01 1.94 2.00 1.86 1.80 1.76 1.77 1.71 1.67 1.53 1.29 1.14 1.18 1.22 1.27 1.21 1.25 1.24 1.49 1.48 1.41 1.35
0.04 0.06 0.13 0.24 0.41 0.90 0.86 0.85 1.09 1.03 1.09 0.85 0.67 0.58 0.64 0.75 0.83 0.87 0.93 1.06 1.24 1.36 1.53 1.78 2.09 2.23 2.15 1.99 1.91 1.93 1.97 1.91 1.80 1.77 1.72 1.54 1.44 1.37 1.23 1.22 1.25 1.21 1.18 1.16 1.15 1.33 1.36 1.41 1.42
0.06 0.08 0.25 0.59 0.99 1.16 0.74 0.82 1.08 0.84 0.77 0.64 0.42 0.41 0.53 0.72 0.86 0.93 0.89 0.85 0.91 1.06 1.21 1.32 1.50 1.76 1.88 1.86 1.83 1.84 1.94 1.84 1.64 1.52 1.43 1.37 1.20 1.12 1.14 1.16 1.19 1.07 1.09 1.19 1.30 1.31 1.31 1.37 1.39
0.05 0.04 0.11 0.24 0.35 0.54 0.72 1.10 1.21 0.86 0.59 0.36 0.27 0.36 0.53 0.68 0.73 0.77 0.76 0.72 0.70 0.78 0.95 1.09 1.28 1.46 1.66 1.68 1.66 1.65 1.71 1.64 1.51 1.49 1.27 1.20 1.15 1.09 1.13 1.15 1.11 1.08 1.12 1.13 1.35 1.26 1.24 1.28 1.24
0.05 0.04 0.04 0.08 0.13 0.34 0.71 1.02 0.97 0.76 0.57 0.40 0.33 0.35 0.45 0.50 0.53 0.64 0.70 0.77 0.75 0.72 0.82 0.95 1.17 1.36 1.55 1.66 1.69 1.61 1.60 1.59 1.56 1.51 1.32 1.16 1.25 1.18 1.24 1.22 1.19 1.19 1.27 1.37 1.46 1.35 1.33 1.37 1.22
0.06 0.05 0.05 0.05 0.12 0.26 0.55 0.96 1.15 0.94 0.70 0.51 0.43 0.43 0.50 0.51 0.53 0.72 0.86 0.82 0.68 0.58 0.65 0.79 0.98 1.23 1.40 1.57 1.58 1.48 1.63 1.60 1.57 1.49 1.37 1.24 1.25 1.24 1.30 1.29 1.24 1.29 1.34 1.44 1.50 1.39 1.42 1.40 1.32
0.07 0.07 0.06 0.06 0.08 0.15 0.38 0.62 0.59 0.55 0.47 0.44 0.49 0.47 0.38 0.44 0.55 0.73 0.91 0.87 0.65 0.53 0.54 0.64 0.85 1.06 1.17 1.27 1.35 1.34 1.39 1.37 1.40 1.42 1.41 1.37 1.35 1.31 1.30 1.29 1.28 1.27 1.33 1.40 1.46 1.38 1.38 1.34 1.36
0.09 0.10 0.10 0.09 0.08 0.09 0.18 0.37 0.32 0.36 0.38 0.40 0.51 0.57 0.51 0.52 0.59 0.56 0.66 0.79 0.72 0.62 0.53 0.60 0.77 0.91 0.96 1.02 1.04 1.08 1.16 1.21 1.20 1.20 1.29 1.36 1.32 1.26 1.31 1.34 1.28 1.19 1.26 1.38 1.40 1.34 1.37 1.39 1.35